Flag for Iran Weather past 2 weeks in Mashhad, Iran

Now
61 °F

Clear.


Feels Like: 61 °F
Forecast: 57 / 85 °F
Wind: No wind

Location: Mashhad Airport

Current Time: Sep 5, 2015 at 5:42:40 AM

Latest Report: Sep 5, 2015 at 5:00 AM


Visibility: 10 mi

Pressure: 30.15 "Hg (26.85 "Hg at 981m altitude)

Humidity: 45%

Dew point: 39 °F

Location of MashhadLocation

Historic Weather in Mashhad — Graph

°F

Mashhad temperature yesterday

Maximum temperature yesterday: 84 °F (at 3:00 PM)
Minimum temperature yesterday: 59 °F (at 6:00 AM)
Average temperature yesterday: 73 °F

Past Weeks' High & Low Weather Summary

 TemperatureHumidityPressure
High99 °F (Aug 21, 2:30 PM)67% (Aug 24, 3:00 AM)30.21 "Hg (Aug 24, 3:00 AM)
Low52 °F (Aug 24, 3:00 AM)7% (Aug 30, 5:00 PM)29.68 "Hg (Aug 21, 4:30 AM)
Average75 °F26%30.04 "Hg
* Reported Aug 21 4:30 AM — Sep 5 4:30 AM, Mashhad, Weather by CustomWeather, © 2015

Note: Actual official high and low records may vary slightly from our data, if they occured in-between our weather recording intervals... More about our weather records

Advertising

Mashhad weather history for previous 24 hours

 ConditionsComfort  
Time TempWeatherWind HumidityBarometerVisibility
4:30 AM
Sat, Sep 5
64 °FClear.5 mph34%30.12 "Hg10 mi
4:00 AM64 °FClear.5 mph34%30.12 "Hg10 mi
3:30 AM66 °FClear.7 mph32%30.12 "Hg10 mi
3:00 AM66 °FClear.5 mph32%30.12 "Hg10 mi
2:30 AM68 °FClear.5 mph30%30.15 "Hg10 mi
2:00 AM68 °FClear.5 mph28%30.15 "Hg10 mi
1:30 AM68 °FClear.7 mph28%30.15 "Hg10 mi
1:00 AM68 °FClear.5 mph28%30.15 "Hg10 mi
12:30 AM70 °FClear.7 mph27%30.15 "Hg10 mi
12:00 AM70 °FClear.9 mph27%30.18 "Hg10 mi
11:30 PM
Fri, Sep 4
70 °FClear.7 mph27%30.18 "Hg10 mi
11:00 PM70 °FClear.7 mph27%30.15 "Hg10 mi
10:30 PM70 °FClear.7 mph29%30.15 "Hg10 mi
10:00 PM72 °FClear.7 mph25%30.15 "Hg10 mi
9:30 PM72 °FClear.5 mph25%30.15 "Hg10 mi
9:00 PM72 °FClear.7 mph25%30.15 "Hg10 mi
8:30 PM75 °FClear.14 mph22%30.15 "Hg10 mi
8:00 PM75 °FSunny.7 mph22%30.12 "Hg10 mi
7:30 PM77 °FSunny.12 mph21%30.12 "Hg10 mi
7:00 PM79 °FSunny.12 mph20%30.09 "Hg10 mi
6:30 PM81 °FPassing clouds.12 mph18%30.09 "HgN/A
6:00 PM82 °FSunny.9 mph17%30.09 "Hg10 mi
5:30 PM82 °FPassing clouds.9 mph17%30.09 "HgN/A
5:00 PM84 °FSunny.12 mph16%30.09 "Hg10 mi
4:30 PM82 °FSunny.9 mph17%30.09 "Hg10 mi
4:00 PM82 °FSunny.9 mph17%30.09 "Hg10 mi
3:30 PM84 °FSunny.7 mph16%30.09 "Hg10 mi
3:00 PM84 °FSunny.9 mph16%30.12 "Hg10 mi
2:30 PM82 °FSunny.7 mph19%30.12 "Hg10 mi
2:00 PM82 °FSunny.9 mph19%30.12 "Hg10 mi
1:30 PM81 °FSunny.9 mph20%30.12 "Hg10 mi
1:00 PM81 °FSunny.7 mph21%30.12 "Hg10 mi
12:30 PM79 °FSunny.5 mph21%30.12 "Hg10 mi
12:00 PM79 °FSunny.14 mph21%30.12 "Hg10 mi
11:30 AM77 °FSunny.14 mph24%30.15 "Hg10 mi
11:00 AM77 °FSunny.5 mph24%30.15 "Hg10 mi
10:30 AM77 °FSunny.9 mph22%30.15 "Hg10 mi
10:00 AM75 °FSunny.7 mph24%30.15 "Hg10 mi
9:30 AM73 °FSunny.7 mph23%30.15 "Hg10 mi
9:00 AM72 °FSunny.5 mph27%30.15 "Hg10 mi
8:30 AM70 °FSunny.5 mph29%30.15 "Hg10 mi
8:00 AM68 °FSunny.5 mph33%30.15 "Hg10 mi
7:30 AM68 °FClear.5 mph33%30.15 "Hg10 mi
7:00 AM63 °FClear.No wind39%30.15 "Hg10 mi
6:30 AM59 °FClear.5 mph48%30.12 "Hg10 mi
6:00 AM59 °FClear.No wind42%30.12 "Hg10 mi
5:30 AM61 °FClear.5 mph36%30.12 "Hg10 mi
5:00 AM61 °FClear.7 mph36%30.12 "Hg10 mi
Weather by CustomWeather, © 2015

See weather overviewHow to use our weather pages